Location: ???? ???
(30.5005°N, 60.5936°E)
Time: 13:05:40
(UTC+00:00)

STARLINK-1050 - Pass Details

Date: 07 June 2020
Orbit: 549 x 550 km, 53.0° (Epoch: 06 July)

Event Time Altitude Azimuth Distance (km) Brightness Sun altitude
Exits shadow 22:54:29 - 141° (SE) 2,368 6.8 -21.7°
Enters shadow 23:55:02 -72° 231° (SW) 12,685 10.4 -11.8°
Maximum altitude 00:35:19 72° 130° (SE) 576 3.8 -4.5°
